This demonstration page uses our WeatherBlox Daily Observations layout. Learn more.

Left ArrowRight Arrow

38.20091, -84.87328

Hourly Observations for August 14, 2019

Temp ( °F °C ) Dew Point ( °F °C ) Humidity (%) Winds ( mph kmh ) Pressure ( in mb ) Visibility ( mi km ) Precip ( " mm )
12:53 am 00:53 Clear 76 24.4 72 22.2 88 88 NW 3 6 29.87 1011 7 11 0.00 0.00
1:53 am 01:53 Clear with Mist and Fog 74 23.3 71 21.7 91 91 WNW 3 6 29.87 1011 6 10 0.00 0.00
2:53 am 02:53 Clear with Mist and Fog 73 22.8 71 21.7 94 94 Calm 29.87 1011 5 8 0.00 0.00
3:53 am 03:53 Clear 71 21.7 70 21.1 96 96 Calm 29.87 1012 7 11 0.00 0.00
4:53 am 04:53 Clear 71 21.7 69 20.6 94 94 Calm 29.87 1012 7 11 0.00 0.00
5:53 am 05:53 Clear with Mist and Fog 70 21.1 68 20 93 93 Calm 29.88 1012 6 10 0.00 0.00
6:53 am 06:53 Clear with Mist and Fog 71 21.7 69 20.6 94 94 NW 3 6 29.89 1012 5 8 0.00 0.00
7:53 am 07:53 Sunny with Mist and Fog 72 22.2 70 21.1 94 94 Calm 29.91 1013 6 10 0.00 0.00
8:53 am 08:53 Sunny 75 23.9 71 21.7 88 88 Calm 29.92 1013 8 13 0.00 0.00
9:53 am 09:53 Sunny 79 26.1 71 21.7 77 77 NNW 7 11 29.92 1013 10 16 0.00 0.00
10:36 am 10:36 Mostly Cloudy 81 27.2 71 21.7 72 72 NW 3 6 29.91 1013 10 16 0.00 0.00
10:53 am 10:53 Mostly Cloudy 81 27.2 71 21.7 72 72 Calm 29.93 1013 9 14 0.00 0.00
11:09 am 11:09 Mostly Cloudy 81 27.2 71 21.7 72 72 NW 7 11 29.92 1013 10 16 0.00 0.00
11:53 am 11:53 Mostly Cloudy 83 28.3 70 21.1 65 65 undefined N/A 29.93 1014 10 16 0.00 0.00
12:53 pm 12:53 Mostly Sunny 86 30 68 20 55 55 VRB 6 9 29.92 1013 10 16 0.00 0.00
1:53 pm 13:53 Partly Cloudy 87 30.6 68 20 53 53 undefined N/A 29.91 1013 10 16 0.00 0.00
2:53 pm 14:53 Mostly Sunny 89 31.7 66 18.9 47 47 NNW 8 13 29.90 1013 10 16 0.00 0.00
3:53 pm 15:53 Partly Cloudy 89 31.7 66 18.9 47 47 VRB 6 9 29.90 1012 10 16 0.00 0.00
4:53 pm 16:53 Mostly Cloudy 90 32.2 64 17.8 42 42 undefined N/A 29.88 1012 9 14 0.00 0.00
5:53 pm 17:53 Sunny 88 31.1 63 17.2 43 43 W 9 15 29.87 1011 10 16 0.00 0.00
6:53 pm 18:53 Sunny 88 31.1 64 17.8 45 45 W 6 9 29.86 1011 10 16 0.00 0.00
7:53 pm 19:53 Sunny 86 30 65 18.3 49 49 W 5 7 29.86 1011 10 16 0.00 0.00
8:53 pm 20:53 Clear 79 26.1 67 19.4 67 67 W 3 6 29.88 1012 9 14 0.00 0.00
9:53 pm 21:53 Clear 76 24.4 67 19.4 74 74 Calm 29.91 1013 10 16 0.00 0.00
10:53 pm 22:53 Mostly Clear 76 24.4 65 18.3 69 69 WNW 5 7 29.92 1013 10 16 0.00 0.00
11:53 pm 23:53 Clear 75 23.9 64 17.8 69 69 WNW 5 7 29.93 1014 10 16 0.00 0.00

Powered by AerisWeather